Weather History for KINL - May, 2014

Change the Weather History Date:

Saturday, May 3, 2014

  Actual Average Record
Temperature  
Mean Temperature 38 °F 47 °F  
Max Temperature 46 °F 60 °F 87 °F (1980)
Min Temperature 30 °F 34 °F 11 °F (1967)
Degree Days  
Heating Degree Days 27 18  
Month to date heating degree days 81 55  
Since 1 July heating degree days 11025 9693  
Cooling Degree Days 0 0  
Month to date cooling degree days 0 0  
Year to date cooling degree days 0 1  
Moisture  
Dew Point 31 °F    
Average Humidity 65    
Maximum Humidity 92    
Minimum Humidity 38    
Precipitation  
Precipitation T in 0.08 in 0.71 in (1913)
Month to date precipitation 0.15 0.23  
Year to date precipitation 4.89 3.90  
Snow  
Snow 0.00 in 0.10 in 2.50 in (1954)
Month to date snowfall 0.0 0.1  
Since 1 July snowfall 101.2 70.9  
Snow Depth 0.00 in    
Sea Level Pressure  
Sea Level Pressure 29.78 in    
Wind  
Wind Speed 12 mph (WNW)    
Max Wind Speed 23 mph    
Max Gust Speed 34 mph    
Visibility 10 miles    
Events Rain    
T = Trace of Precipitation, MM = Missing Value Source: NWS Daily Summary

Daily Weather History Graph

Daily Weather History Graph

Search for Another Location

Airport or City:

Trip Planner

Search our weather history database for the weather conditions in past years. The results will help you decide how hot, cold, wet, or windy it might be!

Date:

Astronomy

May. 03, 2014 Rise Set
Actual Time 5:50 AM CDT 8:31 PM CDT
Civil Twilight 5:15 AM CDT 9:06 PM CDT
Nautical Twilight 4:29 AM CDT 9:52 PM CDT
Astronomical Twilight 3:36 AM CDT 10:46 PM CDT
Moon 9:16 AM CDT (5/3) No Moon Set
Length of Visible Light 15h 51m
Length of Day
14h 40m
Waxing Crescent, 20% of the Moon is Illuminated
May 3
Waxing Crescent
May 6
First Quarter
May 14
Full
May 21
Last Quarter
May 28
New

Hourly Weather History & Observations

Time (CDT) Temp. Windchill Dew Point Humidity Pressure Visibility Wind Dir Wind Speed Gust Speed Precip Events Conditions
12:51 AM 37.4 °F 31.4 °F 35.6 °F 93% 29.65 in 10.0 mi NW 8.1 mph - N/A   Overcast
12:55 AM 37.9 °F 32.1 °F 36.0 °F 93% 29.69 in 10.0 mi NW 8.1 mph - N/A   Overcast
1:55 AM 37.9 °F 30.9 °F 36.0 °F 93% 29.70 in 10.0 mi WNW 10.4 mph - N/A   Overcast
2:11 AM 37.9 °F 31.5 °F 36.0 °F 93% 29.67 in 10.0 mi West 9.2 mph - N/A   Overcast
2:21 AM 37.9 °F 32.1 °F 35.1 °F 89% 29.67 in 10.0 mi WNW 8.1 mph - N/A   Overcast
2:39 AM 37.0 °F 31.0 °F 35.1 °F 93% 29.67 in 10.0 mi WNW 8.1 mph - N/A   Overcast
2:55 AM 37.0 °F 32.4 °F 35.1 °F 93% 29.70 in 10.0 mi WNW 5.8 mph - N/A   Mostly Cloudy
3:11 AM 37.0 °F 31.6 °F 35.1 °F 93% 29.67 in 10.0 mi WNW 6.9 mph - N/A   Mostly Cloudy
3:55 AM 36.0 °F 26.7 °F 34.0 °F 93% 29.72 in 10.0 mi WNW 15.0 mph - N/A   Overcast
4:55 AM 35.6 °F 28.6 °F 33.8 °F 93% 29.69 in 10.0 mi NW 9.2 mph - N/A   Overcast
5:55 AM 35.1 °F 28.6 °F 33.1 °F 92% 29.73 in 10.0 mi WNW 8.1 mph - N/A   Overcast
6:55 AM 34.0 °F 26.6 °F 30.9 °F 89% 29.75 in 10.0 mi WNW 9.2 mph - N/A   Overcast
7:55 AM 36.0 °F 29.0 °F 32.0 °F 86% 29.77 in 10.0 mi WNW 9.2 mph - N/A   Overcast
8:46 AM 37.0 °F 30.4 °F 32.0 °F 82% 29.74 in 10.0 mi NW 9.2 mph - N/A   Overcast
8:55 AM 37.0 °F 30.4 °F 33.1 °F 86% 29.78 in 10.0 mi NW 9.2 mph - N/A   Overcast
9:21 AM 37.9 °F 30.5 °F 33.1 °F 83% 29.75 in 10.0 mi NW 11.5 mph - N/A   Overcast
9:55 AM 37.9 °F 30.5 °F 33.1 °F 83% 29.79 in 10.0 mi WNW 11.5 mph - N/A   Overcast
10:24 AM 39.0 °F 31.8 °F 34.0 °F 82% 29.76 in 10.0 mi NW 11.5 mph - N/A   Overcast
10:32 AM 39.0 °F 31.0 °F 34.0 °F 82% 29.76 in 10.0 mi WNW 13.8 mph - N/A   Overcast
10:55 AM 39.9 °F 32.9 °F 33.1 °F 77% 29.81 in 10.0 mi WNW 11.5 mph - N/A   Overcast
11:18 AM 37.9 °F 30.9 °F 32.0 °F 79% 29.77 in 10.0 mi WNW 10.4 mph - 0.00 in Rain Light Rain
11:55 AM 39.0 °F 32.8 °F 33.1 °F 79% 29.82 in 10.0 mi WNW 9.2 mph - 0.00 in   Overcast
12:23 PM 41.0 °F 35.8 °F 33.1 °F 73% 29.77 in 10.0 mi West 8.1 mph - N/A   Overcast
12:55 PM 41.0 °F 33.1 °F 28.9 °F 62% 29.81 in 10.0 mi WNW 15.0 mph 20.7 mph N/A   Overcast
1:55 PM 43.0 °F 35.1 °F 27.0 °F 53% 29.81 in 10.0 mi WNW 17.3 mph 24.2 mph N/A   Overcast
2:55 PM 42.8 °F 35.1 °F 24.8 °F 49% 29.78 in 10.0 mi WNW 16.1 mph 27.6 mph N/A   Overcast
3:55 PM 46.0 °F 38.8 °F 23.0 °F 40% 29.83 in 10.0 mi WNW 18.4 mph 27.6 mph N/A   Overcast
4:55 PM 42.1 °F 34.5 °F 23.0 °F 47% 29.85 in 10.0 mi WNW 15.0 mph 23.0 mph N/A   Overcast
5:55 PM 42.1 °F 34.5 °F 25.0 °F 51% 29.86 in 10.0 mi WNW 15.0 mph 26.5 mph N/A   Overcast
6:55 PM 41.0 °F 32.8 °F 25.0 °F 53% 29.87 in 10.0 mi WNW 16.1 mph - N/A   Overcast
7:55 PM 39.9 °F 32.1 °F 28.0 °F 63% 29.90 in 10.0 mi NW 13.8 mph 21.9 mph N/A   Mostly Cloudy
8:55 PM 35.1 °F 27.9 °F 28.0 °F 76% 29.93 in 10.0 mi WNW 9.2 mph 18.4 mph N/A   Clear
9:55 PM 33.1 °F 25.5 °F 28.0 °F 82% 29.94 in 10.0 mi West 9.2 mph - N/A   Clear
10:55 PM 32.0 °F 24.2 °F 28.9 °F 88% 29.96 in 10.0 mi WNW 9.2 mph - N/A   Clear
11:55 PM 30.9 °F 22.8 °F 28.0 °F 89% 29.98 in 10.0 mi WNW 9.2 mph - N/A   Clear